Wind_Speed
4 4 4 4 4 4 4 5 6 7 9 10 11 12 13 14 14 15 15 15 15 15 15 15 15 15 15 15 17 18 18 18 18 18 18 19 19 19 19 20 20 20 21
3 3 3 4 4 5 6 7 8 10 11 12 13 14 15 15 16 16 16 16 16 16 16 16 16 16 16 16 18 19 19 20 20 20 21 21 21 21 22 22 22 23 23
4 4 4 5 6 7 8 9 11 12 13 14 15 16 16 16 17 17 17 17 17 17 18 18 18 18 19 19 20 21 22 22 23 23 24 24 24 24 25 25 26 26 26
5 6 6 7 8 9 11 12 13 14 15 15 16 16 17 17 17 18 18 19 19 20 21 21 22 22 23 23 24 25 25 26 27 27 28 28 28 28 29 29 30 30 30
7 8 9 10 11 12 13 14 14 15 15 15 15 16 16 17 17 18 19 20 21 22 23 24 25 25 26 27 27 28 29 30 30 31 32 32 33 33 33 34 34 34 34
10 10 11 12 13 13 14 14 14 14 14 14 15 15 16 17 18 19 19 20 21 22 24 25 26 27 28 29 29 30 31 32 33 34 35 36 36 37 37 38 38 39 39
12 12 13 13 13 13 13 13 13 13 14 14 15 15 16 17 18 19 20 20 21 22 23 24 25 26 27 28 29 30 32 33 34 36 37 38 39 40 41 42 42 43 43
13 13 13 13 13 12 12 12 12 13 13 14 15 16 17 18 19 19 20 21 21 22 23 24 24 25 26 27 28 30 31 33 34 36 38 39 41 42 43 44 45 46 47
14 14 13 12 12 11 11 11 12 13 14 16 17 17 18 19 20 21 22 22 23 24 24 25 25 26 27 27 28 29 30 32 33 35 37 39 41 43 45 46 48 49 50
14 13 12 12 11 10 10 11 13 14 16 17 18 19 20 21 22 23 24 25 26 26 27 27 28 29 29 30 30 30 31 32 33 34 36 38 40 42 44 47 49 51 53
13 12 11 10 10 10 11 12 14 15 17 18 19 20 21 22 23 24 26 27 28 29 30 31 32 33 33 34 34 34 35 35 36 37 37 38 40 42 44 46 49 51 54
13 12 11 10 10 10 11 13 14 15 17 18 19 20 21 22 23 25 26 28 29 30 31 32 34 35 37 37 38 39 39 40 40 41 41 42 43 44 45 47 49 51 54
12 12 11 10 10 11 12 13 14 15 16 18 19 20 21 23 24 25 27 28 30 31 32 33 35 36 38 39 40 41 42 43 43 44 45 46 47 48 49 50 51 53 55
13 12 12 11 11 12 12 13 15 16 17 18 20 21 22 24 25 27 28 30 31 33 34 35 36 38 39 41 42 43 44 45 46 47 48 49 50 51 52 53 55 56 58
14 14 14 13 13 14 15 15 17 18 19 20 21 23 24 26 27 29 31 33 34 36 37 38 39 40 41 42 44 45 46 47 48 49 50 51 53 54 55 57 58 60 62
16 16 16 16 16 17 17 18 19 20 22 23 24 26 27 29 30 32 33 36 38 40 41 42 42 43 43 44 45 47 48 50 51 52 54 55 56 57 59 60 62 64 66
18 18 18 19 19 20 21 22 23 24 25 26 28 29 31 32 34 35 37 38 41 43 45 46 47 46 47 47 48 49 51 52 54 56 57 58 60 61 63 64 66 68 70
20 21 21 22 22 23 24 25 26 28 29 30 31 33 34 35 37 38 40 42 44 46 48 50 51 51 50 50 51 52 53 55 57 58 60 62 63 65 67 68 70 71 73
23 24 24 25 26 27 28 28 30 31 32 34 35 36 37 38 40 41 43 45 47 49 51 53 54 54 53 53 53 54 55 57 58 60 62 64 66 68 69 71 72 74 75
26 26 27 28 30 31 31 32 33 35 36 38 39 40 41 42 43 45 46 48 49 51 54 56 57 57 56 55 55 55 56 58 59 61 63 66 68 69 71 73 74 75 76
29 30 31 32 33 34 34 36 37 38 40 41 43 44 45 46 47 48 50 51 53 54 57 59 60 59 58 57 57 57 57 59 60 62 65 67 69 71 72 74 75 76 76
32 33 34 35 36 37 38 40 40 42 43 45 46 48 49 49 50 52 53 54 56 58 60 62 62 61 60 59 59 59 60 60 61 63 65 68 70 71 73 75 76 77 78
34 35 37 38 39 40 42 43 44 45 46 47 49 51 52 53 54 55 56 58 59 61 62 64 64 63 61 60 60 61 62 63 64 65 66 68 71 72 74 75 77 79 80
37 39 40 41 43 44 46 47 48 49 49 51 53 54 55 57 57 58 59 60 62 63 64 66 65 63 62 61 61 62 63 65 66 66 67 69 70 72 74 76 78 80 82
40 42 43 45 46 48 49 50 51 52 53 55 56 57 58 60 60 61 62 63 64 65 66 67 65 64 63 62 63 63 64 65 67 67 67 69 70 73 75 76 78 80 82
42 44 46 48 49 51 52 54 55 56 57 59 59 60 61 62 62 63 64 66 66 67 67 67 65 64 64 64 64 64 65 66 68 69 68 69 70 71 74 76 78 80 81
Wind_Direction
223 227 236 247 257 267 277 285 291 294 295 295 295 294 292 291 289 287 285 283 280 278 276 273 271 270 270 271 272 273 275 275 273 271 270 269 268 267 266 264 262 260 259
234 242 253 265 277 286 292 296 298 298 298 298 297 297 296 295 294 291 289 286 284 282 279 277 274 272 271 271 271 273 274 274 273 271 269 268 268 267 267 266 265 262 260
258 265 273 285 293 297 299 301 300 299 299 299 298 297 297 297 296 295 293 291 289 287 285 283 282 279 277 275 274 274 275 274 273 272 270 269 267 267 266 266 266 265 263
275 280 286 292 296 299 301 302 301 300 299 299 298 297 297 297 296 295 295 294 292 291 289 287 285 284 282 280 279 277 276 276 275 274 273 271 269 267 266 266 265 265 264
283 287 290 293 295 298 300 301 301 301 301 301 300 299 298 298 297 296 295 295 293 292 291 290 288 287 285 283 281 279 278 277 276 275 274 273 271 269 267 266 265 265 264
285 288 290 292 294 297 299 301 302 303 305 304 304 303 302 301 300 300 298 297 296 294 292 291 290 288 287 285 283 281 280 279 278 276 275 274 273 272 270 268 267 266 265
283 286 289 292 295 298 300 303 305 306 307 308 308 307 306 306 305 304 302 301 299 297 295 293 291 290 288 287 286 284 283 281 279 278 277 275 274 273 272 270 269 267 266
282 285 288 292 295 298 302 305 309 310 312 312 312 311 311 310 308 306 305 303 301 299 297 295 293 292 291 289 288 287 285 283 282 280 279 277 276 274 273 272 270 269 268
281 284 287 291 295 300 304 309 312 314 314 313 313 312 311 310 309 307 305 303 301 300 298 297 296 294 293 291 289 288 286 285 283 282 281 279 277 276 274 272 270 269 268
280 282 285 290 294 300 305 310 313 314 314 313 312 311 310 309 309 307 305 303 301 299 298 296 295 294 292 291 290 288 287 286 285 284 282 281 279 277 275 273 270 269 267
277 279 283 287 292 299 305 309 312 313 313 312 312 311 310 309 308 306 305 303 301 299 297 295 294 292 291 290 288 287 286 285 284 284 283 282 281 279 277 275 272 270 268
273 274 277 282 289 297 303 307 309 311 312 312 312 312 312 312 311 310 308 306 304 302 300 297 295 292 291 289 288 287 286 285 285 284 284 283 283 282 280 279 276 274 272
268 268 271 276 284 292 298 303 306 309 311 312 313 314 315 315 315 314 312 311 309 307 304 301 298 295 293 291 289 288 287 286 286 286 286 286 285 284 283 282 280 278 276
263 263 266 271 279 286 292 297 302 307 310 312 313 314 316 317 317 317 317 316 314 312 309 306 302 299 296 293 291 290 289 288 288 288 288 288 288 287 286 284 283 281 280
259 261 264 270 275 281 288 294 300 304 307 309 310 312 313 315 316 318 319 319 318 316 314 311 307 303 300 297 294 292 291 290 290 290 290 290 289 289 288 287 286 285 284
259 261 265 270 275 280 286 292 296 300 303 306 307 308 310 311 313 315 316 318 318 318 317 315 311 307 303 300 297 295 293 292 291 292 292 292 292 292 291 290 290 289 288
261 263 265 269 274 278 284 289 293 296 299 302 305 306 308 309 310 311 313 315 317 317 317 316 314 311 307 303 300 297 295 294 293 293 294 294 294 294 294 293 293 292 291
263 264 266 270 273 277 282 287 290 293 297 299 302 304 306 308 308 309 310 312 314 315 316 316 315 312 309 306 303 299 297 296 295 296 296 296 296 296 295 295 295 294 294
266 267 269 270 273 277 281 285 288 291 294 297 300 302 304 306 307 308 309 310 311 313 314 315 314 312 309 306 304 301 299 298 298 298 298 297 297 297 297 296 296 296 296
269 270 270 271 273 276 280 283 286 290 292 295 298 300 302 304 305 307 308 309 309 311 312 313 313 311 308 306 304 302 301 300 300 299 299 298 298 298 298 298 298 297 297
270 270 270 272 273 276 279 281 285 288 291 294 296 298 300 302 304 305 306 307 308 309 310 311 311 310 308 305 303 302 301 301 301 300 300 299 299 299 299 299 299 299 299
269 269 270 271 273 276 278 280 284 287 290 292 294 296 298 300 302 303 304 305 306 307 309 309 309 308 307 305 303 301 300 300 299 300 300 300 300 300 301 302 302 302 302
269 269 269 271 273 276 278 280 283 285 288 291 292 295 297 299 300 301 302 303 304 306 307 307 307 307 306 304 303 302 302 301 300 300 300 301 301 302 303 304 305 305 305
270 271 272 273 274 276 277 280 282 285 288 289 291 294 296 297 298 300 300 301 302 304 305 305 305 305 305 304 303 303 303 302 301 300 300 301 302 303 304 305 306 307 307
274 274 274 274 275 277 278 281 283 286 287 289 291 293 294 296 297 298 298 299 300 302 303 303 304 304 304 304 304 303 303 302 302 301 302 303 304 305 306 306 307 308 308
278 277 277 278 278 279 280 283 285 286 287 289 291 292 293 295 296 297 296 297 299 300 301 302 303 304 304 304 304 303 303 303 303 303 303 304 305 306 307 308 308 309 309
Height
5882 5882 5882 5882 5882 5881 5881 5880 5880 5879 5879 5878 5878 5877 5876 5875 5875 5874 5873 5873 5872 5872 5871 5871 5871 5870 5870 5869 5868 5867 5867 5868 5868 5868 5869 5869 5869 5869 5870 5870 5871 5872 5872
5882 5882 5882 5882 5881 5881 5880 5879 5878 5878 5877 5876 5875 5874 5874 5873 5872 5871 5870 5870 5869 5868 5868 5867 5867 5867 5867 5866 5865 5864 5864 5864 5864 5864 5865 5865 5865 5865 5865 5866 5866 5867 5868
5882 5882 5881 5881 5880 5879 5879 5878 5877 5876 5875 5874 5873 5872 5871 5870 5869 5868 5867 5866 5865 5865 5864 5864 5863 5863 5863 5862 5862 5861 5860 5860 5860 5860 5860 5861 5861 5861 5861 5861 5861 5862 5862
5881 5881 5880 5880 5879 5878 5877 5876 5875 5874 5873 5871 5870 5869 5868 5867 5866 5864 5863 5862 5861 5860 5860 5859 5859 5858 5858 5857 5857 5856 5855 5855 5854 5854 5855 5855 5855 5856 5856 5856 5856 5856 5857
5880 5880 5879 5878 5877 5876 5875 5874 5873 5871 5870 5869 5868 5866 5865 5864 5862 5861 5860 5859 5857 5856 5855 5854 5853 5853 5852 5851 5851 5850 5850 5849 5849 5848 5848 5848 5848 5849 5850 5850 5850 5850 5851
5879 5878 5877 5876 5875 5874 5873 5871 5870 5869 5867 5866 5865 5863 5862 5861 5859 5858 5856 5855 5853 5852 5851 5849 5848 5847 5846 5845 5844 5843 5843 5842 5842 5841 5841 5840 5840 5841 5841 5842 5843 5843 5843
5877 5876 5875 5873 5872 5871 5870 5868 5867 5866 5864 5863 5862 5860 5858 5857 5855 5854 5852 5851 5849 5847 5846 5844 5843 5841 5840 5839 5837 5836 5835 5835 5834 5833 5833 5832 5832 5832 5832 5833 5833 5834 5835
5874 5873 5872 5871 5869 5868 5867 5865 5864 5863 5861 5860 5858 5857 5855 5853 5851 5850 5848 5846 5845 5843 5841 5839 5838 5836 5834 5833 5831 5830 5828 5827 5826 5825 5825 5824 5823 5823 5823 5823 5823 5824 5824
5871 5870 5868 5867 5866 5865 5863 5862 5861 5859 5858 5856 5855 5853 5851 5849 5848 5846 5844 5842 5840 5838 5837 5835 5833 5831 5829 5827 5825 5824 5822 5820 5819 5818 5816 5815 5814 5814 5813 5813 5813 5813 5814
5868 5866 5865 5864 5863 5861 5860 5859 5857 5856 5854 5853 5851 5849 5847 5845 5843 5841 5839 5837 5835 5833 5831 5829 5827 5825 5823 5821 5819 5817 5815 5814 5812 5810 5809 5807 5806 5804 5804 5803 5802 5802 5802
5864 5863 5862 5861 5859 5858 5857 5855 5854 5852 5851 5849 5847 5845 5843 5841 5839 5837 5835 5832 5830 5828 5825 5823 5821 5818 5816 5814 5812 5810 5808 5806 5804 5802 5800 5798 5796 5795 5793 5792 5791 5790 5790
5861 5860 5858 5857 5856 5855 5854 5852 5851 5849 5847 5845 5843 5841 5839 5836 5834 5831 5829 5826 5824 5821 5819 5816 5813 5810 5808 5805 5803 5800 5798 5796 5793 5791 5789 5787 5785 5783 5781 5780 5778 5777 5777
5857 5856 5855 5854 5853 5852 5850 5849 5847 5846 5844 5841 5839 5837 5834 5831 5829 5826 5823 5820 5817 5814 5811 5808 5805 5802 5798 5795 5792 5790 5787 5784 5782 5779 5777 5775 5772 5770 5768 5766 5764 5762 5761
5853 5852 5851 5850 5849 5848 5847 5845 5843 5842 5839 5837 5835 5832 5829 5826 5823 5820 5817 5813 5810 5807 5803 5800 5796 5792 5788 5785 5781 5778 5775 5772 5769 5766 5764 5761 5758 5755 5753 5750 5748 5746 5744
5849 5848 5847 5846 5845 5844 5842 5841 5839 5837 5835 5832 5830 5827 5824 5821 5817 5814 5810 5806 5803 5799 5795 5791 5787 5783 5778 5774 5770 5766 5762 5759 5756 5752 5749 5746 5743 5740 5737 5734 5731 5728 5725
5845 5844 5843 5842 5840 5839 5837 5836 5834 5831 5829 5827 5824 5821 5818 5814 5810 5807 5803 5799 5795 5790 5786 5782 5777 5773 5768 5763 5759 5754 5750 5746 5742 5738 5734 5731 5727 5723 5719 5716 5712 5709 5705
5841 5840 5839 5837 5835 5834 5832 5830 5828 5825 5823 5820 5817 5814 5811 5807 5803 5799 5795 5791 5786 5781 5777 5772 5767 5762 5757 5752 5747 5742 5737 5732 5727 5723 5719 5714 5710 5706 5702 5697 5693 5689 5684
5836 5835 5834 5832 5830 5828 5826 5824 5822 5819 5816 5813 5810 5807 5803 5799 5795 5791 5786 5782 5777 5772 5767 5762 5756 5751 5746 5740 5735 5729 5723 5718 5713 5708 5703 5697 5693 5688 5683 5678 5673 5668 5662
5830 5829 5828 5826 5824 5822 5820 5818 5815 5812 5809 5806 5802 5799 5795 5791 5786 5782 5777 5773 5767 5762 5757 5751 5745 5739 5734 5728 5722 5716 5710 5704 5698 5692 5687 5681 5675 5670 5664 5659 5653 5647 5641
5824 5822 5821 5820 5817 5815 5813 5810 5808 5805 5801 5797 5794 5790 5786 5782 5777 5772 5767 5762 5757 5751 5746 5740 5734 5728 5721 5715 5709 5703 5696 5690 5683 5677 5670 5664 5657 5651 5644 5638 5633 5627 5620
5817 5815 5813 5812 5810 5807 5805 5802 5800 5796 5793 5789 5785 5780 5776 5772 5767 5762 5757 5751 5746 5740 5734 5728 5721 5715 5708 5701 5695 5690 5684 5677 5669 5661 5654 5647 5639 5632 5625 5618 5611 5605 5598
5809 5807 5805 5803 5801 5799 5796 5793 5791 5787 5784 5779 5775 5770 5766 5762 5757 5751 5745 5740 5734 5728 5722 5715 5708 5701 5695 5688 5681 5675 5669 5664 5658 5649 5639 5630 5621 5613 5605 5597 5589 5581 5574
5800 5798 5796 5794 5791 5789 5786 5783 5780 5777 5773 5769 5764 5759 5755 5750 5745 5740 5734 5728 5722 5716 5709 5702 5695 5688 5681 5674 5667 5660 5653 5647 5640 5634 5625 5613 5603 5594 5585 5576 5567 5557 5549
5791 5788 5786 5784 5781 5779 5775 5773 5769 5766 5762 5758 5753 5749 5743 5738 5733 5728 5721 5715 5709 5703 5696 5689 5682 5675 5667 5660 5653 5645 5638 5630 5623 5616 5609 5598 5587 5576 5566 5556 5545 5534 5524
5782 5779 5777 5774 5771 5768 5764 5761 5758 5755 5751 5746 5742 5737 5731 5725 5720 5714 5708 5701 5695 5689 5682 5675 5668 5661 5653 5645 5638 5630 5622 5613 5604 5598 5592 5581 5570 5557 5546 5535 5524 5513 5501
5772 5770 5767 5764 5761 5757 5753 5750 5747 5743 5738 5734 5729 5724 5718 5713 5707 5700 5693 5687 5681 5675 5667 5660 5653 5646 5638 5630 5622 5613 5605 5596 5587 5578 5572 5564 5554 5541 5527 5514 5502 5491 5479